AAL350 KMIA-KMSY

Flight info

Callsign AAL350
Flight time N/A
Altitude 38000
Route GLADZ4 BAGGS REMIS Y280 REDFN HRV
Aircraft B737/M-SDE2E3FGHIRWXY/LB1

Departure

Time 2026-05-08 00:34
Airport Miami International Airport (KMIA)

Arrival

Time N/A
Airport Louis Armstrong New Orleans International Airport (KMSY)
Time Latitude Longitude Altitude Speed Heading
2026-05-08 00:08 25.79827 -80.28165 14 ft 0 kts 182°
2026-05-08 00:25 25.79835 -80.28165 15 ft 2 kts 179°
2026-05-08 00:25 25.79852 -80.28163 17 ft 2 kts 198°
2026-05-08 00:25 25.79862 -80.28151 17 ft 2 kts 266°
2026-05-08 00:26 25.79863 -80.28143 17 ft 0 kts 268°
2026-05-08 00:30 25.79868 -80.28174 16 ft 9 kts 290°
2026-05-08 00:30 25.79921 -80.28262 15 ft 19 kts 297°
2026-05-08 00:30 25.79949 -80.28326 15 ft 2 kts 294°
2026-05-08 00:31 25.79953 -80.28398 16 ft 18 kts 269°
2026-05-08 00:31 25.79944 -80.28596 19 ft 32 kts 266°
2026-05-08 00:31 25.79954 -80.28826 24 ft 11 kts 314°
2026-05-08 00:31 25.80016 -80.28899 22 ft 16 kts 287°
2026-05-08 00:32 25.80010 -80.29039 20 ft 22 kts 265°
2026-05-08 00:32 25.79997 -80.29241 21 ft 31 kts 266°
2026-05-08 00:32 25.79987 -80.29521 14 ft 41 kts 269°
2026-05-08 00:32 25.79972 -80.29839 12 ft 37 kts 266°
2026-05-08 00:33 25.79969 -80.29954 12 ft 3 kts 286°
2026-05-08 00:33 25.79970 -80.29957 12 ft 0 kts 286°
2026-05-08 00:33 25.79971 -80.29962 12 ft 7 kts 286°
2026-05-08 00:33 25.80038 -80.30099 14 ft 18 kts 339°
2026-05-08 00:34 25.80071 -80.30077 14 ft 5 kts 64°
2026-05-08 00:34 25.80087 -80.29824 13 ft 79 kts 87°
2026-05-08 00:34 25.80118 -80.28863 21 ft 166 kts 86°
2026-05-08 00:34 25.80239 -80.27492 837 ft 188 kts 85°
2026-05-08 00:35 25.80338 -80.25979 1896 ft 193 kts 89°
2026-05-08 00:35 25.80392 -80.24451 2820 ft 209 kts 88°
2026-05-08 00:35 25.80445 -80.22740 3108 ft 232 kts 88°
2026-05-08 00:35 25.80503 -80.20876 3323 ft 248 kts 88°
2026-05-08 00:36 25.80617 -80.18926 3686 ft 255 kts 77°
2026-05-08 00:36 25.81393 -80.17193 4264 ft 252 kts 46°
2026-05-08 00:36 25.82824 -80.16144 4835 ft 244 kts 16°
2026-05-08 00:36 25.84496 -80.15820 5013 ft 246 kts
2026-05-08 00:37 25.86214 -80.15760 5015 ft 250 kts 359°
2026-05-08 00:37 25.88021 -80.15726 5233 ft 267 kts 359°
2026-05-08 00:37 25.89871 -80.15838 5856 ft 272 kts 345°
2026-05-08 00:38 25.93548 -80.17141 7203 ft 282 kts 342°